When you browse on this site, cookies collect data to enhance your experience and personalize the content and advertising you see.
Visit our Privacy Policy to learn more. By continuing to use the site, you agree to this use of cookies and data.
  • In Austria
  • List of Countries
  • For 7 days
  • Water Temperature
  • Weather Map
  • News
  • Weather Widgets
  • user-avatar
    Login

    Hourly Weather Veliko Tarnovo

    Today, 28 February, Friday

    Time Temperature Precipitation Wind Pressure Humidity
    00:00 +1°C° 0 mm 5 mps 733 mmHg 70%
    01:00 +1°C° 0 mm 4 mps 733 mmHg 71%
    02:00 +1°C° 0 mm 3 mps 734 mmHg 71%
    03:00 +2°C° 0 mm 2 mps 734 mmHg 70%
    04:00 +2°C° 0 mm 2 mps 734 mmHg 70%
    05:00 +3°C° 0 mm 1 mps 734 mmHg 69%
    06:00 +3°C° 0 mm 1 mps 734 mmHg 68%
    07:00 +3°C° 0 mm 1 mps 734 mmHg 66%
    08:00 +3°C° 0 mm 2 mps 735 mmHg 63%
    09:00 +4°C° 0 mm 2 mps 734 mmHg 58%
    10:00 +5°C° 0 mm 3 mps 734 mmHg 53%
    11:00 +7°C° 0 mm 3 mps 734 mmHg 47%
    12:00 +8°C° 0 mm 3 mps 733 mmHg 46%
    13:00 +9°C° 0 mm 3 mps 733 mmHg 45%
    14:00 +10°C° 0 mm 4 mps 732 mmHg 44%
    15:00 +9°C° 0 mm 3 mps 732 mmHg 46%
    16:00 +9°C° 0 mm 3 mps 732 mmHg 48%
    17:00 +9°C° 0 mm 2 mps 732 mmHg 50%
    18:00 +7°C° 0.6 mm 3 mps 732 mmHg 65%
    19:00 +4°C° 0.6 mm 4 mps 733 mmHg 79%
    20:00 +2°C° 0.6 mm 5 mps 733 mmHg 93%
    21:00 +2°C° 0.4 mm 5 mps 733 mmHg 88%
    22:00 +2°C° 0.4 mm 5 mps 733 mmHg 82%
    23:00 +2°C° 0.4 mm 6 mps 734 mmHg 77%

    Tomorrow, 29 February, Saturday

    Time Temperature Precipitation Wind Pressure Humidity
    00:00 +2°C° 0.1 mm 6 mps 734 mmHg 80%
    01:00 +1°C° 0.1 mm 6 mps 734 mmHg 83%
    02:00 +1°C° 0.1 mm 6 mps 734 mmHg 86%
    03:00 +1°C° 0.2 mm 6 mps 735 mmHg 89%
    04:00 -1°C° 0.2 mm 6 mps 735 mmHg 91%
    05:00 -1°C° 0.2 mm 6 mps 736 mmHg 93%
    06:00 -1°C° 0.3 mm 6 mps 737 mmHg 90%
    07:00 -1°C° 0.3 mm 6 mps 737 mmHg 87%
    08:00 0°C° 0.3 mm 5 mps 738 mmHg 84%
    09:00 +1°C° 0.1 mm 5 mps 739 mmHg 82%
    10:00 +1°C° 0.1 mm 5 mps 739 mmHg 80%
    11:00 +3°C° 0.1 mm 4 mps 740 mmHg 77%
    12:00 +4°C° 0 mm 4 mps 740 mmHg 73%
    13:00 +5°C° 0 mm 4 mps 740 mmHg 70%
    14:00 +7°C° 0 mm 3 mps 740 mmHg 66%
    15:00 +7°C° 0 mm 3 mps 740 mmHg 64%
    16:00 +7°C° 0 mm 2 mps 740 mmHg 63%
    17:00 +8°C° 0 mm 1 mps 740 mmHg 61%
    18:00 +7°C° 0 mm 1 mps 741 mmHg 66%
    19:00 +6°C° 0 mm 1 mps 741 mmHg 70%
    20:00 +5°C° 0 mm 1 mps 741 mmHg 74%
    21:00 +3°C° 0 mm 2 mps 741 mmHg 75%
    22:00 +3°C° 0 mm 2 mps 741 mmHg 76%
    23:00 +3°C° 0 mm 2 mps 742 mmHg 78%

    Day after tomorrow, 1 March, Sunday

    Time Temperature Precipitation Wind Pressure Humidity
    00:00 +2°C° 0 mm 2 mps 741 mmHg 78%
    01:00 +2°C° 0 mm 2 mps 741 mmHg 79%
    02:00 +2°C° 0 mm 2 mps 741 mmHg 80%
    03:00 +2°C° 0 mm 2 mps 741 mmHg 80%
    04:00 +2°C° 0 mm 2 mps 740 mmHg 79%
    05:00 +2°C° 0 mm 2 mps 740 mmHg 79%
    06:00 +2°C° 0 mm 2 mps 740 mmHg 79%
    07:00 +3°C° 0 mm 2 mps 740 mmHg 79%
    08:00 +3°C° 0 mm 2 mps 740 mmHg 79%
    09:00 +5°C° 0 mm 2 mps 740 mmHg 73%
    10:00 +7°C° 0 mm 2 mps 740 mmHg 68%
    11:00 +8°C° 0 mm 2 mps 740 mmHg 62%
    12:00 +9°C° 0 mm 2 mps 740 mmHg 59%
    13:00 +10°C° 0 mm 2 mps 739 mmHg 56%
    14:00 +12°C° 0 mm 2 mps 739 mmHg 53%
    15:00 +12°C° 0 mm 2 mps 738 mmHg 56%
    16:00 +10°C° 0 mm 2 mps 738 mmHg 60%
    17:00 +10°C° 0 mm 3 mps 737 mmHg 63%
    18:00 +9°C° 0 mm 2 mps 738 mmHg 68%
    19:00 +8°C° 0 mm 2 mps 738 mmHg 73%
    20:00 +7°C° 0 mm 2 mps 738 mmHg 78%
    21:00 +6°C° 0 mm 2 mps 738 mmHg 80%
    22:00 +6°C° 0 mm 2 mps 738 mmHg 82%
    23:00 +5°C° 0 mm 2 mps 738 mmHg 83%

    2 March, Monday

    Time Temperature Precipitation Wind Pressure Humidity
    00:00 +5°C° 0 mm 2 mps 738 mmHg 85%
    01:00 +5°C° 0 mm 2 mps 737 mmHg 86%
    02:00 +4°C° 0 mm 2 mps 737 mmHg 87%
    03:00 +4°C° 0 mm 2 mps 737 mmHg 87%
    04:00 +4°C° 0 mm 2 mps 736 mmHg 87%
    05:00 +4°C° 0 mm 2 mps 736 mmHg 87%
    06:00 +5°C° 0 mm 2 mps 736 mmHg 86%
    07:00 +5°C° 0 mm 2 mps 735 mmHg 84%
    08:00 +5°C° 0 mm 2 mps 735 mmHg 83%
    09:00 +7°C° 0 mm 2 mps 735 mmHg 76%
    10:00 +10°C° 0 mm 2 mps 735 mmHg 69%
    11:00 +13°C° 0 mm 2 mps 734 mmHg 61%
    12:00 +14°C° 0 mm 2 mps 734 mmHg 58%
    13:00 +15°C° 0 mm 2 mps 734 mmHg 55%
    14:00 +16°C° 0 mm 2 mps 733 mmHg 51%
    15:00 +16°C° 0 mm 2 mps 733 mmHg 55%
    16:00 +15°C° 0 mm 2 mps 733 mmHg 59%
    17:00 +15°C° 0 mm 2 mps 733 mmHg 62%
    18:00 +14°C° 0 mm 2 mps 733 mmHg 66%
    19:00 +12°C° 0 mm 2 mps 734 mmHg 69%
    20:00 +10°C° 0 mm 2 mps 734 mmHg 72%
    21:00 +10°C° 0 mm 2 mps 734 mmHg 73%
    22:00 +9°C° 0 mm 2 mps 735 mmHg 74%
    23:00 +9°C° 0 mm 2 mps 735 mmHg 75%

    3 March, Tuesday

    Time Temperature Precipitation Wind Pressure Humidity
    00:00 +9°C° 0 mm 2 mps 735 mmHg 76%
    01:00 +9°C° 0 mm 2 mps 735 mmHg 76%
    02:00 +8°C° 0 mm 2 mps 735 mmHg 77%
    03:00 +8°C° 0 mm 2 mps 735 mmHg 79%
    04:00 +8°C° 0 mm 2 mps 734 mmHg 80%
    05:00 +8°C° 0 mm 2 mps 734 mmHg 82%
    06:00 +8°C° 0 mm 3 mps 734 mmHg 83%
    07:00 +9°C° 0 mm 3 mps 734 mmHg 84%
    08:00 +9°C° 0 mm 3 mps 734 mmHg 85%
    09:00 +11°C° 0 mm 4 mps 734 mmHg 79%
    10:00 +11°C° 0 mm 6 mps 734 mmHg 74%
    11:00 +14°C° 0 mm 7 mps 733 mmHg 69%
    12:00 +15°C° 0 mm 8 mps 733 mmHg 67%
    13:00 +15°C° 0 mm 9 mps 733 mmHg 66%
    14:00 +16°C° 0 mm 9 mps 733 mmHg 64%
    15:00 +15°C° 0 mm 8 mps 732 mmHg 66%
    16:00 +15°C° 0 mm 7 mps 732 mmHg 67%
    17:00 +14°C° 0 mm 6 mps 732 mmHg 69%
    18:00 +14°C° 0 mm 6 mps 732 mmHg 71%
    19:00 +13°C° 0 mm 6 mps 732 mmHg 73%
    20:00 +13°C° 0 mm 5 mps 732 mmHg 75%
    21:00 +13°C° 0 mm 6 mps 732 mmHg 75%
    22:00 +13°C° 0 mm 6 mps 732 mmHg 74%
    23:00 +13°C° 0 mm 6 mps 732 mmHg 74%

    4 March, Wednesday

    Time Temperature Precipitation Wind Pressure Humidity
    00:00 +11°C° 0 mm 6 mps 732 mmHg 74%
    01:00 +11°C° 0 mm 6 mps 731 mmHg 74%
    02:00 +11°C° 0 mm 6 mps 731 mmHg 75%
    03:00 +11°C° 0 mm 6 mps 731 mmHg 76%
    04:00 +12°C° 0 mm 5 mps 730 mmHg 76%
    05:00 +10°C° 0 mm 5 mps 730 mmHg 77%
    06:00 +10°C° 0 mm 5 mps 730 mmHg 76%
    07:00 +12°C° 0 mm 5 mps 729 mmHg 75%
    08:00 +12°C° 0 mm 5 mps 729 mmHg 74%
    09:00 +13°C° 0.1 mm 6 mps 729 mmHg 71%
    10:00 +13°C° 0.1 mm 8 mps 729 mmHg 68%
    11:00 +15°C° 0.1 mm 9 mps 729 mmHg 65%
    12:00 +15°C° 0.6 mm 9 mps 729 mmHg 66%
    13:00 +13°C° 0.6 mm 9 mps 728 mmHg 67%
    14:00 +13°C° 0.6 mm 9 mps 728 mmHg 68%
    15:00 +13°C° 0.2 mm 8 mps 727 mmHg 68%
    16:00 +12°C° 0.2 mm 8 mps 727 mmHg 68%
    17:00 +12°C° 0.2 mm 7 mps 727 mmHg 68%
    18:00 +11°C° 0 mm 6 mps 727 mmHg 71%
    19:00 +10°C° 0 mm 6 mps 727 mmHg 75%
    20:00 +10°C° 0 mm 5 mps 727 mmHg 78%
    21:00 +10°C° 0 mm 4 mps 727 mmHg 80%
    22:00 +10°C° 0 mm 4 mps 728 mmHg 81%
    23:00 +10°C° 0 mm 3 mps 728 mmHg 83%
    Show more